Regional Weather Roundup
Issued by NWS

Home | Current Version | Previous Version | Text Only | Print | Product List | Glossary On
Versions: 1 2 3 4 5 6 7 8 9 10 11 12 13 14 15 16 17 18 19 20 21 22 23 24 25 26 27
000
ASUS42 KTBW 210317
RWRFL
FLORIDA REGIONAL WEATHER ROUNDUP
NATIONAL WEATHER SERVICE TAMPA BAY RUSKIN FL
1100 PM EDT WED SEP 20 2017

NOTE: "FAIR" INDICATES FEW OR NO CLOUDS BELOW 12,000 FEET WITH NO
SIGNIFICANT WEATHER AND/OR OBSTRUCTIONS TO VISIBILITY.

FLZ001>010-012>015-112-114-115-210400-
PANHANDLE FLORIDA

CITY           SKY/WX    TMP DP  RH WIND       PRES   REMARKS
PENSACOLA      PTCLDY    80  71  74 SW5       30.00S
PENSACOLA NAS  PTCLDY    75  71  87 CALM      29.99F
MILTON NAS     CLOUDY    74  74 100 CALM      30.00
CRESTVIEW      MOCLDY    75  72  90 CALM      30.02F
DUKE FIELD     MOCLDY    75  73  93 CALM      30.01S
VALPARAISO     MOCLDY    78  74  87 CALM      29.99S
MARY ESTHER    PTCLDY    81  70  69 W3        29.99S
PANAMA CITY    FAIR      77  74  90 CALM      30.00S
TYNDALL AFB    PTCLDY    78  75  90 N3        30.02R
APALACHICOLA   CLEAR     75  75 100 CALM      30.02R

STATION/POSITION SKY/WX   TEMP    WIND        PRES    WAVE   SWELL
                          AIR SEA DIR/SP/G            HT/PER HT/PER
                          (F)     (DEG/KT/KT) (MB)    (FT/S) (FT/S)
30.1N   87.6W              83 84  260/  6/  8 1015.6F   1
29.2N   88.2W              82 84     CALM     1016.2
28.8N   86.0W              81 83  340/  2/  4 1016.2R   0
PANAMA CITY BEAC           82     270/  6/  7 1016.7R
TOWER C                    81                 1017.1R
28.5N   84.5W              82 82  360/  8/ 10 1015.7R   1

$$
FLZ011-016>038-118-127-128-134-139-239-210400-
NORTH FLORIDA

CITY           SKY/WX    TMP DP  RH WIND       PRES   REMARKS
MARIANNA       TSTM      78  69  73 VRB5      30.02R
TALLAHASSEE    CLOUDY    77  75  93 SE5       30.02R
PERRY          PTCLDY    74  72  94 CALM      30.02S
LIVE OAK       PTCLDY    77  73  88 CALM      30.02R
CROSS CITY     PTCLDY    75  72  90 CALM      30.05S
LAKE CITY      FAIR      73  72  94 SE3       30.03R
GAINESVILLE    MOCLDY   N/A N/A N/A CALM      30.04S
WILLISTON      CLEAR     77  70  78 CALM      30.03R
PALATKA        MOCLDY    75  73  94 SE6       30.03S
MAYPORT NAS    CLOUDY    80  75  84 SE7       30.02R
JACKSONVILLE   CLOUDY    78  73  84 S3        30.01R
JAX NAS        MOCLDY    81  73  76 S9        30.02S
JAX CECIL      CLEAR     77  72  83 S3        30.02R
FERNANDINA BEA FAIR      81  72  74 MISG      30.00S
ST AUGUSTINE   CLEAR     79  73  82 S7        30.03R
PALM COAST     FAIR      75  53  46 CALM      30.02S

STATION/POSITION SKY/WX   TEMP    WIND        PRES    WAVE   SWELL
                          AIR SEA DIR/SP/G            HT/PER HT/PER
                          (F)     (DEG/KT/KT) (MB)    (FT/S) (FT/S)
SHELL POINT      NOT AVBL
KEATON BEACH               77      30/  2/  2 1015.9R
CEDAR KEY                  79      30/  4/  6 1016.6R
FERNANDINA                 82 82  150/  6/ 10 1017.1R
30.7N   81.3W                 83                N/A     3/13   2/13
MAYPORT                    81 83  150/  6/  8 1016.8R
31.4N   80.9W              81 80  160/  8/  8 1016.3R   2/12   2/12
ST AUGUSTINE               81 84  150/ 10/ 11 1016.9R

$$
FLZ040-043>046-052-053-057-058-063-144-210400-
INTERIOR CENTRAL FLORIDA

CITY           SKY/WX    TMP DP  RH WIND       PRES   REMARKS
OCALA          PTCLDY    78  69  73 VRB3      30.03R
THE VILLAGES     N/A     77  70  78 CALM      29.93S
LEESBURG       CLEAR     79  72  79 E5        30.03S
SANFORD        CLEAR     77  71  82 E5        30.02S
ORLANDO EXEC   CLEAR     78  71  79 NE6       30.01F
ORLANDO INTL   PTCLDY    77  72  84 NE7       30.01F
KISSIMMEE      CLEAR     78  71  79 E6        30.03R
WINTER HAVEN   CLEAR     78  70  76 SE6       30.03R
LAKELAND       CLEAR     77  70  78 SE5       30.02S
SEBRING        FAIR      79  72  79 CALM      30.01S
OKEECHOBEE     CLEAR     73  70  88 CALM      30.00R

$$
FLZ041-047-054-059-064-141-147-210400-
EAST CENTRAL FLORIDA

CITY           SKY/WX    TMP DP  RH WIND       PRES   REMARKS
DAYTONA BEACH  CLEAR     79  73  82 E3        30.03R
DELAND         CLEAR     75  72  88 CALM      30.02S
JFK SPACE CTR  CLEAR     76  73  89 E6        30.00S
CAPE CANAVERAL CLEAR     79  70  74 E6        29.99F HAZE
PATRICK AFB    CLEAR     81  73  78 E8        29.99F
MELBOURNE      CLEAR     81  71  71 E12       29.99F
VERO BEACH     CLEAR     80  71  74 E9        29.99F
FT PIERCE      CLEAR     80  72  76 E6        29.99S
STUART         MOCLDY    82  75  78 E8        30.00S

STATION/POSITION SKY/WX   TEMP    WIND        PRES    WAVE   SWELL
                          AIR SEA DIR/SP/G            HT/PER HT/PER
                          (F)     (DEG/KT/KT) (MB)    (FT/S) (FT/S)
28.5N   80.2W              82 85   80/ 10/ 14 1017.1S   5/12   5/12
28.9N   78.5W                      70/  6/ 10 1016.5R   7/13   7/13
TRIDENT PIER               80 83   60/  6/ 10 1017.8F
28.4N   80.5W                 83                N/A     3/13   2/13
27.5N   80.2W                 83                N/A     5/14   3/14

$$
FLZ050-056-061-142-242-148-248-149-249-151-251-155-255-
160-260-210400-
WEST CENTRAL FLORIDA

CITY           SKY/WX    TMP DP  RH WIND       PRES   REMARKS
CRYSTAL RIVER  FAIR     N/A N/A N/A CALM      30.02S
INVERNESS      FAIR      77  70  78 CALM      30.03R
BROOKSVILLE    CLEAR     77  67  71 SE3       30.02R
CLEARWATER AIR FAIR      81  68  65 SE9G16    30.00S
ST PETE CLEARW CLEAR     83  70  64 E13       30.00R
TAMPA INTL     CLEAR     81  69  67 SE5       30.01R
TAMPA EXEC     CLEAR     79  70  73 CALM      30.02R
PLANT CITY     CLEAR     79  72  78 SE5       30.04R
MACDILL AFB    CLEAR     79  74  83 SE9       30.00S
PETER O KNIGHT MOCLDY    81  73  78 E8        30.01S
ST PETERSBURG  CLEAR     83  71  67 SE17      29.99S
SARASOTA       CLOUDY    77  75  93 E6        29.99R
VENICE         CLOUDY    79  73  83 E6        30.00R

STATION/POSITION SKY/WX   TEMP    WIND        PRES    WAVE   SWELL
                          AIR SEA DIR/SP/G            HT/PER HT/PER
                          (F)     (DEG/KT/KT) (MB)    (FT/S) (FT/S)
27.3N   84.2W                 83                N/A     2/ 4
CLEARWATER BEACH           83 85  110/  8/ 13 1016.1R
MIDDLE TAMPA BAY           81     130/ 10/ 11 1016.1R
VENICE                     79 85  100/ 10/ 16 1015.7R

$$
FLZ066-069-070-075>078-162-262-165-265-210400-
SOUTHWEST FLORIDA AND KEYS

CITY           SKY/WX    TMP DP  RH WIND       PRES   REMARKS
PUNTA GORDA    CLOUDY    78  76  93 NE5       30.01S
FT MYERS       CLOUDY    78  75  90 E6        29.99R
SOUTHWEST INTL CLOUDY    79  73  82 NE6       29.99R
NAPLES         CLOUDY    80  75  84 NE8       29.97S
IMMOKALEE      DRIZZLE   77  75  94 CALM      30.00S
MARATHON       CLEAR     83  72  69 E6        29.97R
KEY WEST NAS   CLEAR     84  77  79 E5        29.96S
KEY WEST INTL  CLEAR     84  74  71 E3        29.96F

STATION/POSITION SKY/WX   TEMP    WIND        PRES    WAVE   SWELL
                          AIR SEA DIR/SP/G            HT/PER HT/PER
                          (F)     (DEG/KT/KT) (MB)    (FT/S) (FT/S)
NAPLES           NOT AVBL
DRY TORTUGAS               84      80/  5/  6 1014.8F
SAND KEY                   83                 1015.1F

$$
FLZ067-068-071>074-168-172>174-210400-
SOUTHEAST FLORIDA

CITY           SKY/WX    TMP DP  RH WIND       PRES   REMARKS
W PALM BEACH   PTCLDY    82  71  69 E9        29.98S
BOCA RATON     MOCLDY   N/A N/A N/A E9        29.98S
FT LAUDER-EXEC MOCLDY    81  77  88 SE10      29.97F
FT LAUDERDALE  PTCLDY    81  76  84 E6        29.96F
POMPANO BEACH  PTCLDY    82  75  79 E9        29.97S
PEMBROKE PINES PTCLDY    83  74  74 NE6       29.99S
OPA LOCKA      PTCLDY    83  79  88 E5        29.98S
MIAMI          CLOUDY    84  75  74 E9        29.97F
WEST KENDALL   PTCLDY    81  74  79 E6        29.97S
HOMESTEAD      PTCLDY    82  77  83 E5        29.96F

STATION/POSITION SKY/WX   TEMP    WIND        PRES    WAVE   SWELL
                          AIR SEA DIR/SP/G            HT/PER HT/PER
                          (F)     (DEG/KT/KT) (MB)    (FT/S) (FT/S)
PORT EVERGLADES            84      70/  6/  9 1015.0S
VIRGINIA KEY               84 86   60/  6/  9 1014.5F
LAKE WORTH                         50/ 13/ 14   N/A
FOWEY ROCKS                83 85   60/ 10/ 10 1015.4F
SETTLEMENT POINT           83      70/  9/ 10 1015.3F

$$





USA.gov is the U.S. government's official web portal to all federal, state and local government web resources and services.